Regional Weather Roundup
Issued by NWS Wakefield, VA

Home | Current Version | Previous Version | Text Only | Print | Product List | Glossary On
Versions: 1 2 3 4 5 6 7 8 9 10 11 12 13 14 15 16 17 18 19 20 21 22 23 24 25 26 27
000
ASUS41 KAKQ 231616
RWRAKQ

REGIONAL WEATHER ROUNDUP
NATIONAL WEATHER SERVICE WAKEFIELD VA
1200 PM EDT TUE MAY 23 2017

Note: "fair" indicates few or no clouds below 12,000 feet with no
significant weather and/or obstructions to visibility. * = Denotes
station may not report precipitation (e.g., rain,snow,etc.),
thunder or fog.

VAZ042-051-052>054-056-231700-
NORTHERN VIRGINIA

CITY           SKY/WX    TMP DP  RH WIND       PRES   REMARKS
WASH NATIONAL  CLOUDY    67  57  70 E7        29.95F
DULLES         CLOUDY    63  54  72 E10       29.94F
FORT BELVOIR   CLOUDY    65  57  75 E3        29.94F
QUANTICO       CLOUDY    66  60  81 NE8       29.94F
FREDERICKSBRG* CLOUDY    66  59  79 NE7       29.92F
STAFFORD*      CLOUDY    64  59  86 NE7       29.97F
WARRENTON      CLOUDY    65  55  70 NE6       29.93F
CULPEPER*      LGT RAIN  63  57  80 E5        29.94F
MANASSAS*        N/A     64  57  78 E10       29.94F
LEESBURG*      CLOUDY    64  57  77 E7        29.97S
WINCHESTER     CLOUDY    61  50  67 E3        29.95F
FRONT ROYAL*   CLOUDY    61  54  77 N3        29.94F
LURAY*         CLOUDY    63  52  67 N5        29.94F
$$

VAZ048-049-060>072-079>083-231700-
CENTRAL AND SOUTH CENTRAL VIRGINIA

CITY           SKY/WX    TMP DP  RH WIND       PRES   REMARKS
RICHMOND       CLOUDY    65  63  93 NE8       29.90F FOG
CHESTERFIELD*  NOT AVBL
PETERSBURG*    DRIZZLE   64  62  93 NE7       29.90F
HANOVER        CLOUDY    65  59  81 NE5       29.91F
TAPPAHANNOCK*  DRIZZLE   66  63  90 NE3       29.93S
QUINTON*       CLOUDY    64  64 100 NE5       29.90S
CHARLOTTSVILLE CLOUDY    63  54  72 N9        29.92F
GORDONSVILLE*  CLOUDY    62  56  82 NE9       29.92F
ORANGE*        DRIZZLE   61  54  77 E7        29.93F
LOUISA*        CLOUDY    66  61  82 CALM      29.91F
BUMPASS*       CLOUDY    64  60  85 N5        29.92S
FARMVILLE*     DRIZZLE   61  61  99 NE7       29.90S
CREWE*         CLOUDY    62  58  87 CALM      29.89F
FORT PICKETT*  CLOUDY   N/A N/A N/A E9        29.89S
CHASE CITY*    CLOUDY    62  60  94 N7        29.87F
CLARKSVILLE*   CLOUDY    64  64 100 CALM      29.86S
SOUTH HILL*    CLOUDY    65  65 100 E7        29.92F
LAWRENCEVILLE* CLOUDY    65  64  97 CALM      29.87F
EMPORIA*       DRIZZLE   64  64 100 E8        29.89S
$$

VAZ088>098-231700-
SOUTHEAST VIRGINIA

CITY           SKY/WX    TMP DP  RH WIND       PRES   REMARKS
NORFOLK        RAIN      63  62  97 E10       29.90S FOG
VIRGINIA BEACH LGT RAIN  62  61  96 E10       29.89F FOG
NORFOLK NAVAL  RAIN      64  61  90 E12       29.92S FOG
WEST POINT*    CLOUDY    65  64  96 E10G16    29.91F
SALUDA*        CLOUDY    65  63  94 E10G17    29.91F
NEWPORT NEWS   LGT RAIN  65  62  90 E12       29.90F FOG
LANGLEY AFB    LGT RAIN  64  63  94 E12       29.90S
FORT EUSTIS    PTSUNNY   66  63  88 E10       29.88S FOG
WILLIAMSBURG*  CLOUDY    66  66 100 E5        29.91F
HR EXEC AP*    CLOUDY    64  63  94 E10       29.88F
FRANKLIN*      RAIN      66  64  93 E9        29.88F
US460-WAKEFLD  CLOUDY    66  65  96 VRB5      29.89S
$$

VAZ020-022-025-037-045-231700-
WEST CENTRAL AND SOUTHWEST VIRGINIA

CITY           SKY/WX    TMP DP  RH WIND       PRES   REMARKS
STAUNTON*      CLOUDY    60  51  70 N5        29.96S
WAYNESBORO*    CLOUDY    59  53  80 E6        29.95S
HOT SPRINGS VA CLOUDY    48  46  93 E7        29.95F
LYNCHBURG      LGT RAIN  59  53  80 NE12      29.91F
DANVILLE       CLOUDY    63  62  97 NE10      29.87F
SOUTH BOSTON*  CLOUDY    62  60  95 N3        29.87F
MARTINSVILLE   CLOUDY    65  61  87 N9        29.90S
ROANOKE        CLOUDY    62  58  86 N6        29.92F
BLACKSBURG     CLOUDY    58  55  88 E6        29.94S
DUBLIN*        CLOUDY    60  56  85 E9        29.92S FOG
MARION*        CLOUDY    62  59  91 E9        29.91S
HILLSVILLE*    LGT RAIN  60  56  87 E10       29.89S
RICHLANDS*     CLOUDY    61  59  95 E7        29.85F
WISE*          CLOUDY    63  57  82 CALM      29.85F
ABINGDON*      LGT RAIN  65  62  89 E9        29.84F
$$

MDZ021>025-VAZ099-100-231700-
SOUTHERN MARYLAND AND THE DELMARVA PENINSULA

CITY           SKY/WX    TMP DP  RH WIND       PRES   REMARKS
PATUXENT RIVER CLOUDY    65  62  90 E10       29.93S
BAY BRIDGE APT CLOUDY    64  59  82 E5        29.95S
LEONARDTOWN    CLOUDY    63  59  88 E5        29.95F
DOVER          CLOUDY    66  66 100 E6        29.94S
GEORGETOWN     CLOUDY    64  55  72 E12       29.95F
EASTON         PTSUNNY   66  59  77 SE7       29.98F
CAMBRIDGE      CLOUDY    64  59  82 E7G14     29.94F
SALISBURY      LGT RAIN  61  59  93 E9        29.94S FOG
OCEAN CITY     CLOUDY    61  57  87 E7        29.96S
WALLOPS ISLAND LGT RAIN  61  61 100 E12       29.94S
ACCOMACK*      LGT RAIN  62  49  61 E14       29.92S
$$

NCZ012>017-030>032-231700-
NORTH CENTRAL AND EASTERN NORTH CAROLINA

CITY           SKY/WX    TMP DP  RH WIND       PRES   REMARKS
ROANOKE RAPIDS RAIN      66  64  94 NE9G17    29.86F
RALEIGH        CLOUDY    71  67  87 E7        29.84F
ELIZABETH CITY LGT RAIN  66  66 100 E16       29.87F FOG
AHOSKIE*       HVY RAIN  65  65  97 NE6       29.87F
EDENTON*       DRIZZLE   69  67  93 E8        29.86F
CURRITUCK*     RAIN     N/A N/A N/A E9G17     29.89F
KILL DEVIL HLS NOT AVBL
MANTEO         CLOUDY    67  67  98 E10       29.87F
CAPE HATTERAS  NOT AVBL
TARBORO*       NOT AVBL
GOLDSBORO      NOT AVBL
WASHINGTON     LGT RAIN  69  68  98 NE5       29.83F
GREENVILLE     LGT RAIN  68  68 100 CALM      29.87F
NEW BERN       CLOUDY    76  73  91 SW5       29.83F
WILMINGTON     CLOUDY    75  73  93 S6        29.82F
$$

VAZ048-231700-
ELSEWHERE

CITY           SKY/WX    TMP DP  RH WIND       PRES   REMARKS
HARRISBURG PA  CLOUDY    65  48  54 E6        29.94F
BALTIMORE      CLOUDY    64  56  75 NE7       29.95S
ANNAPOLIS      CLOUDY    65  60  84 NE6       29.95S
ANDREWS AFB    CLOUDY    64  57  78 E9        29.93F
PHILADELPHIA   CLOUDY    66  56  70 E6        29.94F
HENDERSON NC   CLOUDY    66  64  93 NE7       29.86F
GREENSBORO     CLOUDY    66  66 100 NE8       29.84S
ROCKY MOUNT    LGT RAIN  69  69 100 NE6       29.83F FOG
$$

VAZ100-231700-
MARINE

STATION/POSITION TIME  TEMP    WIND        PRES    WAVE   SWELL
                       AIR SEA DIR/SP/G            HT/PER HT/PER
                 (UTC) (F)     (DEG/KT/KT) (MB)    (FT/S) (FT/S)
CAPE MAY NJ      1548   61 61   70/  9/ 13 1013.9R
LEWES DE         1548   60 62  100/  8/ 10 1013.9F
15NM E FENWICK I 1550   57 56   30/  6/  8 1014.4S   3/ 8   3/ 8
OCEAN-CITY-INLET 1548   60 61   80/  5/  7 1014.5F
WACHAPREAGUE VA  1548   62 67   70/ 12/ 16 1013.0S
THOMAS POINT MD  1600   63 65   50/  5/  6   N/A
GOOSES REEF MD   1600   65 59   90/  8/ 10 1014.5    1/ 2
COVE POINT MD    1548   64     100/  9/ 10 1014.2F
SOLOMONS ISLAND  1548   64 67   80/  9/ 11   N/A
BISHOPS HEAD MD  1548   64 67   70/ 10/ 13 1014.1R
PINEY POINT MD   1548           80/  6/  8   N/A
POTOMAC MD       1600   65 67   80/ 12/ 14 1012.4    1/ 2
CAMBRIDGE MD     1536   64 69                N/A
LEWISETTA VA     1548   65 69   80/ 10/ 12 1013.2F
RAPPAHANNOCK LGT 1548           70/ 14/ 15 1013.6S
STINGRAY PT      1550   64     110/ 12/ 16 1012.8F
YORK RVR RNG VA  1548   65     100/ 15/ 18 1012.1S
YORKTOWN VA      1548   65 69  100/  8/ 13 1012.4R
JAMESTOWN VA     1600   65 73   70/  8/ 14   N/A
DOMINION TERM VA 1548   64      90/ 14/ 21 1012.4F
KIPTOPEKE VA     1548      66  100/ 10/ 16   N/A
CHES BAY BRIDGE  1548   62 67   90/ 16/ 18 1012.3F
CAPE HENRY VA    1548   62      80/ 13/ 15   N/A
WILLOUBY STN VA  1548   63      80/ 16/ 18 1012.0F
S CRANEY ISL VA  1548   64      90/ 13/ 16 1012.0F
CAPE HENRY BUOY  1542      62                N/A     3/ 7
1ST LANDING BUOY 1600   63 67              1012.6    2/ 3
CAPE CHARLES BUO 1551      62                N/A     3/ 8
64NM E OF VA BCH 1550   65 64   80/ 12/ 16 1012.7F   4/ 4   3/ 6
DUCK PIER NC     1548   64 65   60/ 11/ 12 1011.5F
44100 DUCK FRF   1535      65                N/A     4/ 4
44056 DUCK FRF   1530      65                N/A     3/ 8
OREGON INLET NC  1548           80/  6/  8   N/A
HATTERAS NC      1548   73 74  220/  7/ 11 1011.1F
DIAMOND SHLS NC  1550   75 77  230/ 12/ 17 1011.5F   4/ 5   2/ 5
CAPE LOOKOUT NC  1600   74     200/ 15/ 19 1010.2F
$$




USA.gov is the U.S. government's official web portal to all federal, state and local government web resources and services.